TIMESTAMP,CO2_1_1_1,H2O_1_1_1,TAU_1_1_1,TAU_SSITC_TEST_1_1_1,H_1_1_1,H_SSITC_TEST_1_1_1,LE_1_1_1,LE_SSITC_TEST_1_1_1,FC_1_1_1,FC_SSITC_TEST_1_1_1,WD_0_0_1,WS_0_0_1,WS_MAX_0_0_1,U_SIGMA_0_0_1,V_SIGMA_0_0_1,W_SIGMA_0_0_1,USTAR_0_0_1,MO_LENGTH_0_0_1,ZL_0_0_1,FETCH_MAX_0_0_1,FETCH_70_0_0_1,FETCH_80_0_0_1,FETCH_90_0_0_1,PA_0_0_1,RH_0_0_1,TA_0_0_1,VPD_0_0_1,T_SONIC_0_0_1,T_SONIC_SIGMA_0_0_1
[yyyymmddHHMMSS],[mmolCO2 mol-1],[mmolH2O mol-1],[kg m-1 s-2],[#],[W m-2],[#],[W m-2],[#],[umolCO2 m-2 s-1],[#],[Decimal degrees],[m s-1],[m s-1],[m s-1],[m s-1],[m s-1],[m s-1],[m],[#],[m],[m],[m],[m],[kPa],[%],[deg C],[hPa],[deg C],[deg C]
20221001003000,415.49390669610460,8.8476446757436680,4.9053485028830314E-002,1,-31.806467055120194,0,23.859878098902328,0,1.0751736868475932,0,204.90513972863749,2.0190967283495551,3.5589202905994517,0.41395103140001654,0.39021547775435006,0.26517974703041169,0.20768374911293552,23.572203369851543,0.80603411152903448,102.97804207116025,188.27670406808215,225.31912822830711,282.07281120142585,94.403097721390353,48.921724137931037,15.069655172413775,8.7229799145840694,15.271579086363033,0.40500050859674713
20221001010000,416.98733256278086,8.7258791581159816,7.7750029160579687E-002,1,-66.340786581670670,0,15.713191640478117,1,2.9419361161074704,0,199.85067405174144,2.0313575751211150,3.9353307520228573,0.51261252011178216,0.54808687579392013,0.35498250496713674,0.26102583476923719,22.438164403311131,0.84677158338300740,97.912048001976942,179.01445119367636,214.23457715003568,268.19626859211087,94.411255213107637,51.256000000000000,14.134666666666647,7.8365678727729362,14.280178822835239,0.46704115743940594
20221001013000,417.74311418000781,8.7281273247956310,3.8847222951284066E-002,0,-34.719854281561929,0,10.300298497622782,0,1.8006868094592943,0,200.43134875420074,2.1318148694666235,4.3787437296752518,0.49103975448930226,0.38063832489531441,0.27784224719912720,0.18428200057285707,15.086189537484207,1.2594300206020390,193.61342580287206,1702.0000000000000,3078.0000000000000,8097.0000000000000,94.410470431517027,53.667000000000002,13.431333333333328,7.1160799093192741,13.621383618161417,0.40690896306085783
20221001020000,417.67668077670970,8.7476704609742324,3.6157952368834734E-002,0,-33.198535527714569,0,9.1412538523560212,1,1.4135527559860421,1,205.31078897984241,2.2798845310332156,3.8394767420524203,0.47972459341837620,0.43193957819481693,0.26878916149139176,0.17774356453509677,14.160230118456891,1.3417861038313776,236.73469157186290,2116.0000000000000,3846.0000000000000,-9999.,94.440307777560776,54.008000000000003,13.373333333333335,7.0370475852808605,13.675933770073812,0.47068837726376123
20221001023000,416.76018723629034,8.4933870967997311,6.1403538189746955E-002,1,-49.368344284002440,0,15.846852347687003,1,2.2092168754262951,0,217.69185818575804,2.5988141412688708,4.3103094559225594,0.46512798224857715,0.45800056881877316,0.29490993394970866,0.23166120722549435,21.083028524171212,0.90119879969886363,103.22527070390498,188.72871685826777,225.86007209248180,282.75000872863853,94.449765572699661,51.961333333333336,13.514999999999986,7.4183776773673724,13.763957277086149,0.50474120033867886
20221001030000,418.29231637818498,8.4405816192069487,0.10013313173778103,0,-67.121572530417083,0,17.367202952578022,0,2.5327447920266661,0,221.14786345125407,2.8825134419992580,4.5983205479690215,0.59414112677678932,0.43468448158380246,0.33567493810558896,0.29555932832399229,32.202024426545272,0.59002501669856589,113.09294215364484,206.76996740078550,247.45084119219274,309.77908958761208,94.449199846094402,53.436999999999998,12.990333333333353,6.9484193532229455,13.158627795033624,0.50449255483024447
20221001033000,419.79116807509621,8.4441992971643050,6.6884576603188445E-002,0,-46.108721684438564,0,12.104168597142706,1,2.4332342667423879,0,227.91497283435635,2.8601980951658885,5.9366854935596649,0.60227789272633603,0.42048595167470215,0.31484077815674860,0.24141378102542679,25.546461645497256,0.74374292078718796,101.24923826233011,185.11589933184567,221.53645223982591,277.33734973250927,94.454969244791656,54.599000000000004,12.669333333333327,6.6340768058088910,12.895447962443086,0.46025970549807310
20221001040000,419.42491117479148,8.2958490992029041,0.10227152467604017,0,-68.783412152092041,0,18.841639391842815,0,3.4762752030228978,0,229.78455609851284,2.9445780706713891,5.6931149849148124,0.70271366013350856,0.48021123466354287,0.37221038473539625,0.29851918140779204,32.375459397119940,0.58686425934361275,104.95470318085947,191.89067100033898,229.64412362618481,287.48719221694466,94.444647129123254,53.706666666666663,12.648666666666657,6.7553044370228532,12.773881863912038,0.50416100302625577
20221001043000,420.41283826045679,8.2941175014757995,0.12048952587922211,0,-65.367977735499110,0,15.062901726932290,0,2.0924499046371801,0,228.60409918043212,3.0163834232372806,5.4550158919867835,0.63458620952039324,0.47543724371889595,0.39762664203523496,0.32380684469064641,43.477538656986951,0.43700725907920390,106.24373725005313,194.24743639515535,232.46456987749923,291.01805623726284,94.442341179687503,55.049999999999997,12.269000000000005,6.3977281194739408,12.333440802680116,0.41063823505076930
20221001050000,422.37878130361349,8.3628485401756887,6.4140868324529504E-002,0,-30.917552127858752,0,4.0294784451978103,1,1.3633114521864536,1,232.34114225952328,3.1619397459074912,5.3727642176174966,0.57805155959425480,0.46828564635691877,0.33693289764506462,0.23601962831658513,35.603531143965562,0.53365493223613325,94.184332441382693,172.19899825501008,206.07822067342116,257.98547815185839,94.467078290581597,57.374666666666670,11.770666666666671,5.8708205668219504,11.780226701524498,0.43991346357382843
20221001053000,423.72919412086804,8.5067910232036539,7.0760321496250389E-002,0,-41.074059662789288,0,7.0334762407695521,0,3.3058405694278403,1,226.35034891167925,2.8422474513078870,5.4639896701420101,0.58076780055233868,0.45350174871415139,0.32523384627691632,0.24771015020114334,30.987220940755389,0.61315598569894947,100.70553795821411,184.12184177160347,220.34681922605944,275.84807036626250,94.484753606971211,59.927666666666667,11.373333333333335,5.3760245233485922,11.411912778655960,0.43938282987315347
20221001060000,424.53758256152952,8.5090543118153779,6.4137429262112244E-002,0,-33.973358809406029,0,4.6372258909325570,0,1.6719753895342182,0,226.58613340548914,2.7653609376382429,5.0490807087297398,0.59180137123086973,0.41996228938120406,0.28967515607520700,0.23569080810321627,32.270306057505884,0.58877656648628873,106.16955974514860,194.11181625848806,232.30226721177473,290.81487255931069,94.483990956597225,61.333666666666666,11.027666666666676,5.0697911195518053,11.097343149820915,0.44102680550082385
20221001063000,425.23890799955888,8.6209896463692193,3.8824102132289054E-002,0,-17.914398921959918,0,4.2780707743652648,0,1.0044698451196861,0,240.55556017490079,2.4296695070381853,4.0386624872572776,0.41055656711210858,0.37761608558814924,0.23319847239025893,0.18335437294139037,28.819335679749337,0.65927959655748936,237.16405608763864,2337.0000000000000,4365.0000000000000,-9999.,94.511592569227432,62.116000000000000,11.038000000000011,4.9706253544021708,11.110558017306857,0.42419774551912426
20221001070000,429.57919153506106,8.9563384168018647,5.6496100908486363E-002,1,-10.183544484812415,1,-23.165843525558905,1,-3.4908229365057881,2,240.75938770661952,2.2873551770163569,3.7839908435988763,0.42303632696074184,0.39091034323140367,0.24359493057939724,0.22100576780294995,88.807884232423390,0.21394496856015829,115.83590323152512,211.78497507371702,253.45252452585993,317.29248493571089,94.543954501085068,66.258666666666670,10.646333333333359,4.3132068481166055,10.752043190850145,0.43688448167497262
20221001073000,427.52038635523729,9.0248221424635631,4.6953891727457772E-002,0,-21.561751382273403,1,-5.0382927737326373,2,-1.1847281868979314,2,242.62669969212862,2.3079698441285093,3.8412484138429943,0.46939417316187620,0.46230013225865429,0.25533620075822405,0.20150405738359276,31.795847086020377,0.59756231524819781,103.60769750506792,189.42791501956609,226.69683371385375,283.79753498485007,94.561477912401386,66.266666666666666,10.761666666666656,4.3454375682467727,10.920641363824245,0.64711083975548644
20221001080000,422.49438856860689,8.6373782435840756,2.3786950376839353E-002,0,-18.085357428940490,0,5.8498259628562188,0,1.7387271872777834,0,244.57231753464197,2.2372786947061143,3.3644005941974711,0.35567195088334219,0.30428023604182275,0.20709816040135570,0.14356279901810506,13.708425914488796,1.3860088764763576,343.25077386742430,3218.0000000000000,5928.0000000000000,-9999.,94.564217097564452,60.923000000000002,11.367333333333306,5.2404089899596844,11.484017631513382,0.37504214229185245
20221001083000,421.49735031474961,8.5190809481430829,4.0266443021396245E-002,0,-24.636921233254835,0,6.1980822534716564,0,1.7890420099358526,0,245.43297952383506,2.2340230806771877,3.5496305029803903,0.39304206786740542,0.40138453404317681,0.21373007937842189,0.18680095800874369,22.166835116033660,0.85713634357558632,204.16959814726306,1915.0000000000000,3528.0000000000000,9586.0000000000000,94.555728994492767,59.951999999999998,11.400333333333322,5.3823784129286762,11.554815783867070,0.42866479274657443
20221001090000,420.97591195042531,8.4414550681381346,2.7138698432532353E-002,0,-16.842678911807866,0,0.24606379142904450,2,0.86430445322354765,1,246.99747714996795,2.4477488504387170,4.1603857649594680,0.50129954423220136,0.40885248707894284,0.22416735480818500,0.15333514037898460,17.934974105183187,1.0593826279631495,348.70387451261138,3437.0000000000000,6421.0000000000000,-9999.,94.567894276909726,59.547333333333334,11.366333333333330,5.4245329251411523,11.625032597012023,0.45941650535874162
20221001093000,420.88289920493736,8.3549595563527159,0.12062402050503200,0,-50.364284289780606,0,14.421821835531045,0,3.0152360817383914,0,249.27205149030331,2.6358028823523454,4.5189704855152186,0.63690406795125687,0.45643760745390033,0.36361608536391798,0.32316393858276921,56.156044258176479,0.33834292017877571,113.94066353144818,208.31987244627643,249.30568168037331,312.10112977543480,94.589493810329870,59.384666666666668,11.255666666666684,5.4065401365793937,11.424848410712343,0.59704830280391274
20221001100000,423.03943534907000,8.4900471097726271,6.4829601956609528E-002,0,-28.256883054306293,0,6.7777892457989219,0,2.2359630385832228,0,244.70387184910476,2.4112318476234424,4.0014112042849641,0.51126909914504226,0.37518820308592077,0.27266515758772947,0.23668352074371998,39.324884931923883,0.48315462417477612,111.81127511775442,204.42667129244228,244.64651423668286,306.26840501285596,94.599218278211808,62.560333333333332,10.714666666666687,4.8078072317205205,10.902599550035291,0.56030717114625794
20221001103000,428.03715213132347,8.7541729896542115,4.0004654081656668E-002,0,-28.177675274591437,0,22.723292591321215,1,7.8509308598084511,1,263.23607367945669,2.5750283754982850,4.0859920223246569,0.43665658997464968,0.42106478758815158,0.23628494499158259,0.18580124932380770,19.080724149965953,0.99576933509800269,269.59135855239350,2580.0000000000000,4780.0000000000000,-9999.,94.614549742621534,66.078999999999994,10.355999999999995,4.2529934660070294,10.615877610948360,0.43723797701153838
20221001110000,426.50303880297497,8.8250322126104788,3.8432076332359136E-002,0,-29.351088491871646,0,12.541431117546562,0,6.2274775466664032,0,272.79766334553477,2.7690944605483674,4.8010074621866998,0.52954473173206607,0.43333212191493553,0.27615348601242296,0.18204845501415581,17.233847347918594,1.1024816233094179,321.79190281668627,3112.0000000000000,5784.0000000000000,-9999.,94.641163758463549,67.204999999999998,10.228000000000009,4.0767952504152474,10.470117458767447,0.41116222019565929
20221001113000,425.19689572502983,8.8059693046631846,4.0757285107006852E-002,0,-25.678300557993712,0,4.6556204237662531,0,1.5083087446259809,1,280.63346193180769,2.8129663929514730,4.7952632748149879,0.51636510702641858,0.52388181387844279,0.26417317564753029,0.18739416903527206,21.490547585462441,0.88410962654356917,305.54649633586013,3030.0000000000000,5672.0000000000000,-9999.,94.672492542100699,67.748000000000005,10.080333333333328,3.9698822939682170,10.359737411499054,0.36669252011416753
20221001120000,423.52453335635317,8.7458599075197814,8.7294138496517529E-002,0,-45.631157889623047,0,7.0850118727324860,1,3.3273607687728055,1,299.08114072460040,2.6425562153596447,5.1058554051305043,0.61633553956740761,0.48160334858630582,0.32187683214470414,0.27423447267566653,37.903586254394838,0.50127182880477417,110.15412438099931,201.39687122453415,241.02061737713157,301.72921240927138,94.683001795989497,67.263000000000005,10.086999999999989,4.0313792762673595,10.306800114699172,0.39311347482896047
20221001123000,425.86150691007674,8.9007497642858215,3.9407091248100171E-002,0,-24.003334462540753,0,6.4377461128287674,0,2.7828981489004279,0,324.23051256485684,2.2973924274666322,4.7371545392678032,0.61076686447708906,0.48688686453526120,0.24438903751445573,0.18416306606223401,21.824871168638033,0.87056642182166355,220.54756948960005,2088.0000000000000,3856.0000000000000,-9999.,94.692425666883679,69.700000000000003,9.8193333333333612,3.6649509180238740,9.9818221774630729,0.32635187553386535
20221001130000,424.53610626784734,8.8221556162159125,3.9368499954777593E-003,1,-7.2936802726433179,0,1.1183420730432660,0,0.81988601295490759,0,352.99947599930084,1.3912968986033076,2.6247154836774036,0.32339601085488340,0.30315467823675785,0.12788481784718053,5.8202983512699480E-002,2.2677408068483977,8.3783825482266341,637.61142121024886,4558.0000000000000,7781.0000000000000,-9999.,94.721184025173613,68.937333333333328,9.8556666666666501,3.7663664106109618,9.9541866141425999,0.29957124593675477
20221001133000,424.86350466219079,9.1669203684386762,3.6752467090821327E-002,1,-7.0185066026179106,0,3.8010606596857053,2,1.1773146059191455,2,10.326828683377613,1.4418699097519125,3.0320151619382503,0.36505343164683246,0.61250463858912951,0.20233256520611043,0.17803116352003334,67.450615965571998,0.28168756842336234,96.965514141544716,851.00000000000000,1539.0000000000000,4046.0000000000000,94.723719834635418,68.817999999999998,10.454999999999984,3.9355062178130518,10.434233155144625,0.22514568915104038
20221001140000,424.04908161492597,9.6082929443225726,5.5042446776366535E-002,1,33.334415099815025,1,28.234905881768739,1,0.70717714215125338,1,40.360659764062547,1.3889040054037018,2.6431611044076009,0.41332477281105690,0.31245046967943740,0.25843720064128733,0.21803824039655259,-26.095772848924852,-0.72808726953579384,109.29417397548495,199.82460761613916,239.13901939961147,299.37367501995476,94.750150980251746,69.953999999999994,10.919333333333327,3.9112604441278123,10.835454648335826,0.29581869163379426
20221001143000,424.69058097975579,9.8633612717235017,7.0977400673834026E-002,0,-8.3952676702820170,2,27.273923553507473,1,-8.4757772129426298E-002,2,26.999255363796834,1.8559797588117060,4.1808262347615406,0.56760891821651838,0.44408254326710911,0.37471868027544997,0.24758337105858694,151.73564371563933,0.12521777701491821,89.880980673695376,164.33109874002571,196.66235444356008,246.19793095940562,94.772758631989973,71.775666666666666,10.930333333333351,3.6768117901315134,11.019796154243352,0.25448147874016919
20221001150000,427.27722891613666,10.418545191721812,0.17819890618347178,1,57.691025731238099,1,43.176218377904540,1,-5.2812999617722047,0,25.345568975153355,1.9048487349158227,4.6668834374481944,0.68726110048829525,0.58328639683357564,0.48947373262983812,0.39238088809272986,-87.921694404385903,-0.21610138576961047,104.91501909399869,191.81811583296715,229.55729362168904,287.37849135493911,94.797556169921890,75.146666666666661,11.067666666666639,3.2673497407952437,11.189270745171598,0.43017684542781010
20221001153000,426.27568034461729,10.744702424564238,0.17980572940484568,1,43.555118817932424,0,45.726612807980338,0,-4.1887060197321517,1,28.502204582435525,1.6346632170336390,4.4455763811402260,0.69634082235619132,0.49090288859049663,0.44700476549339113,0.39491559990689595,-118.73577957343538,-0.16001916244840866,113.39883918909837,207.32924474245016,248.12015332873915,310.61698895910075,94.795880565972226,72.200333333333333,12.138333333333321,3.9228411512092420,12.245175548129623,0.22175937393210088
20221001160000,423.10031913276748,10.745158137790082,0.15651576640061979,1,61.535297934588982,0,86.699153649227213,0,-1.7751135303245638,2,58.371226796432381,1.6709955222999062,4.2129304996227015,0.62216219822040464,0.62280000014614523,0.45755803984230803,0.36905825190531238,-68.587431682403945,-0.27701868307272448,105.43234920133257,192.76396026314870,230.68922783257815,288.79553866677247,94.786268676215286,68.013000000000005,13.048000000000002,4.7913323504729499,12.971048668755373,0.46877793046958549
20221001163000,419.83170389430705,10.680705580611541,0.14817247974968575,0,39.325500295893931,0,66.814514527350852,0,-4.6236606191230658,0,70.590237132887381,1.7481832698780730,4.2422225803926912,0.80170734297694324,0.54319682267624558,0.42184709749437221,0.35967408753708113,-99.326090856518519,-0.19128911483536029,110.21943183578853,201.51627408063325,241.16351209996722,301.90809964575698,94.762829519748266,63.852666666666664,13.920666666666648,5.7312805424555640,13.948204561021555,0.25445055086734086
20221001170000,416.47623863784281,10.972912237438258,9.0978781836180134E-002,1,121.26916806548546,1,103.24862830247507,1,-7.8902025140722927,1,60.958373406259824,1.1082690819203587,3.1754771719284567,0.61523146480286839,0.40031874265154349,0.37389006658701718,0.28232491427188022,-15.578194819005825,-1.2196535106121205,100.01361429142055,182.85678463096983,218.83286892882302,273.95278424600019,94.756710957682301,61.695000000000000,14.868333333333339,6.4573430751053325,14.874869422064933,0.67867328527344839
20221001173000,415.87019953368093,10.762487435360386,0.20503638297149568,1,130.03562834357896,0,122.62030908559474,0,-8.1818945054272092,0,48.232997089187506,1.8856864277041487,4.8829393016721490,0.80106915319968786,0.65018584409528124,0.49623042610953244,0.42463242860461853,-49.424447295635574,-0.38442513856250637,110.53981017169313,202.10202785809633,241.86450976798832,302.78566554271003,94.741576798828135,56.506333333333330,15.932999999999993,7.8505238960107695,15.851674261305106,0.42774408079621823
20221001180000,418.20234884053446,11.378962731404515,0.20084549663547008,0,17.986161885439977,1,67.782356219589232,0,-4.5747520132955009,0,29.349249683141323,1.9317758320154925,5.1213592740434803,0.82173065338359674,0.54038834780768841,0.45360346881508529,0.41976094140938658,-345.27601992377953,-5.5028437839946986E-002,117.68345939494533,215.16289698826512,257.49503432427900,322.35322750166819,94.770664813192752,62.420333333333332,15.253666666666675,6.4941142005541090,15.432849773528005,0.24392283379615756
20221001183000,416.22726224188460,11.591778285483572,0.10224710799952641,0,129.55794576268298,0,60.648481980764586,0,-6.6411802837560945,0,35.888446739919686,1.9002091003485229,5.7896588562113598,0.91615944985661335,0.54556865833799417,0.47635501031768696,0.30010619688328127,-17.515201983638764,-1.0847719608228445,86.522743226867419,158.19116963232466,189.31442746141713,236.99919831449793,94.749270318359365,59.327666666666666,16.334000000000003,7.5315478447754938,16.257926755269466,0.56698636248609424
20221001190000,416.24104004247488,11.785111109059772,0.11224634383215784,0,189.52060960499148,0,144.62456603012959,0,-6.9826986650703624,0,41.616680990590083,2.2804711202964718,6.3619849822910597,1.0653364287958518,0.61262701485231141,0.55631405422239733,0.31496834830591935,-13.838290140632241,-1.3730019971334357,79.435092361912950,145.23268336088449,173.80642903807760,217.58502453451476,94.707084219835096,57.209333333333333,17.159999999999968,8.3505444572812948,16.776011001586994,0.53316162351308771
20221001193000,417.03125931655217,11.821321123501551,0.43888562006295029,1,124.42276838008280,0,68.609519601507671,0,-6.1281811162068420,0,32.638330265656975,2.3343176390369287,6.5950346570988900,1.0013264934479496,0.89460408032762617,0.65553885666706047,0.62262777902824795,-162.80753306529505,-0.11670221667433486,120.15972974621396,219.69030895630581,262.91319013287261,329.13611563226993,94.691870102213542,58.187333333333335,16.938333333333333,8.0458994302285536,16.736852736579067,0.36206052278411466
20221001200000,416.58580235711236,12.008037969724910,0.40848334152268978,0,153.52515692025293,0,67.656525631696368,0,-4.2645366719623352,0,32.954899064601989,2.7400661195583949,7.1245745052306706,1.1517919670214249,0.79938210547206079,0.65911572804802032,0.60036366953573594,-118.30231048554238,-0.16060548540446279,116.20293101621310,212.45601892163472,254.25559262482724,318.29783090009067,94.700942039279511,60.225666666666669,16.644333333333350,7.5121477983099112,16.442178548177139,0.45177452974728544
20221001203000,415.52823890388066,11.737410981032349,0.29875255231605452,0,107.14627237977032,0,80.543489464006115,0,-6.6118303267700744,0,32.373763489715685,2.1706782013029242,6.1479528501619303,0.99601141167719875,0.73033609303530156,0.57221996416587706,0.51340920393073797,-106.00733533507967,-0.17923287987517755,114.80886279325586,209.90721759481340,251.20532840956423,314.47926206010055,94.704674508392827,58.813333333333333,16.659666666666681,7.7864779321135620,16.602701856883527,0.35357874217974417
20221001210000,415.41501654550120,11.889176207995179,0.32610256235483093,0,48.220299598920647,0,84.384113526633755,0,-6.0708767527228735,0,26.459799931550634,2.3061677182899301,7.1673567239585614,1.1236398162761549,0.80493028301045300,0.62298937729174253,0.53640158691372308,-268.64001927698570,-7.0726617914696241E-002,111.08679317140151,203.10208723284345,243.06132542083236,304.28393672075896,94.703874476128476,59.619999999999997,16.647333333333336,7.6279938268755405,16.776801166110545,0.20387017182054765
20221001213000,414.89588438197092,11.874885506670573,0.16031096278777632,0,-9.2986815679819141,1,36.852931841379387,0,-0.45303235115148000,2,26.770754804565513,2.2222800854149645,5.8904200284502046,0.82997272520554743,0.68799491455665596,0.50542876044515772,0.37578764205185261,479.02770046577251,3.9663677030630486E-002,98.782709510926949,180.60629811528295,216.13961135182208,270.58114535316537,94.712789693142369,61.248333333333335,16.206666666666649,7.1178797927050752,16.555686614990236,0.10110155388780763
20221001220000,412.96105033290718,11.997466003464083,0.23879444008340486,0,13.984922974907178,0,55.541506083284261,0,-3.2446596696717669,0,30.989475337983720,2.1681505084356112,5.9338892949469670,0.92648456686515990,0.56081253150981092,0.48801976536705027,0.45862684869881670,-579.02780931338862,-3.2813622583223089E-002,119.14410265427126,217.83341871458725,260.69096676992069,326.35415568047131,94.718183730468752,61.943333333333335,16.191666666666663,6.9835386818219405,16.469493622673895,0.12310575519464088
20221001223000,413.61992411978702,11.970723730482193,0.28065646601336575,0,-11.088020683450091,1,35.238245389660598,0,-1.1911013908448196,1,31.847452112749835,2.7167226025891420,6.2423661236026629,1.0252641322676173,0.64052573452160944,0.54887705063609293,0.49677671955338359,928.32055275463097,2.0467068130314233E-002,115.61224376659948,211.37605423930523,252.96315072690743,316.67984701062989,94.746558065667202,63.456333333333333,15.783666666666647,6.5333733418766542,16.122135731219657,0.16848489410111195
20221001230000,415.54070058262408,12.564777783628021,0.34160514825242289,0,-20.666512127270735,1,30.548845372518134,1,1.7842910562712782,2,32.538912033959491,2.7672766379883704,7.2359600945334188,1.0930705921433872,0.68632612249153502,0.59951506870718307,0.54734805061892478,666.39407436537192,2.8511658087737798E-002,116.41948601382479,212.85195052394297,254.72942163044800,318.89100858853260,94.777657809244786,69.826999999999998,15.052666666666653,5.1472157510253327,15.467322135077609,0.31008138783266448